Location: Nitra
(0.0000°N, 18.0833°E)
Time: 19:00:49
(UTC+02:00)

Courier 1B - All Passes

Search period start: 31 March 2023 00:00
Search period end: 10 April 2023 00:00
Orbit: 962 x 1209 km, 28.3° (Epoch: 31 March)

Date Brightness Start Highest point End Pass type
(mag) Time Alt. Az. Time Alt. Az. Time Alt. Az.
31 Mar - 01:31:20 10° SW 01:34:31 14° SSW 01:37:44 10° S night (unlit)
31 Mar - 07:20:11 10° S 07:23:23 13° SSE 07:26:39 10° SE daylight
31 Mar - 09:11:21 10° SW 09:18:20 42° SSE 09:25:35 10° E daylight
31 Mar - 11:05:09 10° WSW 11:12:46 64° NNW 11:20:33 10° NE daylight
31 Mar - 13:01:58 10° WNW 13:07:36 21° NNW 13:13:13 10° NNE daylight
31 Mar - 18:55:59 10° N 18:57:00 10° NNE 18:58:02 10° NNE daylight
31 Mar - 20:46:05 10° NW 20:52:07 32° NNE 20:57:55 10° E visible
31 Mar - 22:39:37 10° WNW 22:46:16 70° SSW 22:52:43 10° SE visible
01 Apr - 00:36:02 10° WSW 00:40:30 19° SSW 00:44:59 10° SSE night (unlit)
01 Apr - 08:18:00 10° SSW 08:24:17 30° SSE 08:30:50 10° E daylight
01 Apr - 10:11:08 10° WSW 10:18:44 85° NNW 10:26:37 10° ENE daylight
01 Apr - 12:06:57 10° W 12:13:23 28° NNW 12:19:52 10° NNE daylight
01 Apr - 19:52:38 10° NNW 19:58:09 24° NNE 20:03:25 10° ENE visible
01 Apr - 21:45:39 10° WNW 21:52:30 83° NNE 21:59:01 10° ESE visible
01 Apr - 23:41:11 10° W 23:46:36 27° SSW 23:51:56 10° SSE night (unlit)
02 Apr - 07:24:51 10° SSW 07:30:12 22° SSE 07:35:46 10° ESE daylight
02 Apr - 09:17:20 10° SW 09:24:43 72° SSE 09:32:29 10° ENE daylight
02 Apr - 11:12:17 10° W 11:19:13 37° NNW 11:26:20 10° NE daylight
02 Apr - 13:11:18 10° NW 13:14:32 13° NNW 13:17:46 10° N daylight
02 Apr - 18:59:20 10° NNW 19:04:04 18° NNE 19:08:36 10° ENE daylight
02 Apr - 20:51:49 10° NW 20:58:41 59° NNE 21:05:11 10° ESE visible
02 Apr - 22:46:37 10° W 22:52:44 37° SSW 22:58:42 10° SE visible
03 Apr - 00:46:13 10° SSW 00:47:25 10° SSW 00:48:37 10° S night (unlit)
03 Apr - 06:32:02 10° S 06:36:06 16° SSE 06:40:16 10° ESE daylight
03 Apr - 08:23:43 10° SW 08:30:44 52° SSE 08:38:09 10° ENE daylight
03 Apr - 10:17:54 10° WSW 10:25:08 50° NNW 10:32:38 10° NE daylight
03 Apr - 12:15:28 10° WNW 12:20:10 17° NNW 12:24:55 10° NNE daylight
03 Apr - 18:06:14 10° N 18:09:51 14° NNE 18:13:21 10° NE daylight
03 Apr - 19:58:05 10° NW 20:04:47 43° NNE 20:11:08 10° E visible
03 Apr - 21:52:16 10° WNW 21:58:55 53° SSW 22:05:18 10° SE visible
03 Apr - 23:49:46 10° WSW 23:53:20 15° SSW 23:56:51 10° S night (unlit)
04 Apr - 05:40:02 10° S 05:41:54 11° SSE 05:43:49 10° SE visible
04 Apr - 07:30:18 10° SW 07:36:46 38° SSE 07:43:36 10° E daylight
04 Apr - 09:23:47 10° WSW 09:31:05 67° NNW 09:38:47 10° NE daylight
04 Apr - 11:20:13 10° WNW 11:25:53 22° NNW 11:31:40 10° NNE daylight
04 Apr - 17:13:45 10° N 17:15:30 11° NNE 17:17:14 10° NNE daylight
04 Apr - 19:04:27 10° NNW 19:10:50 32° NNE 19:16:51 10° E visible
04 Apr - 20:58:04 10° WNW 21:05:07 76° SSW 21:11:46 10° SE visible
04 Apr - 22:54:28 10° WSW 22:59:20 21° SSW 23:04:07 10° SSE visible
05 Apr - 06:37:05 10° SSW 06:42:48 27° SSE 06:48:48 10° E daylight
05 Apr - 08:29:54 10° WSW 08:37:07 90° N 08:44:46 10° ENE daylight
05 Apr - 10:25:23 10° W 10:31:41 29° NNW 10:38:13 10° NNE daylight
05 Apr - 12:26:26 10° NNW 12:27:16 10° NNW 12:28:06 10° N daylight
05 Apr - 18:10:56 10° NNW 18:16:45 24° NNE 18:22:18 10° ENE daylight
05 Apr - 20:04:02 10° NW 20:11:16 79° NNE 20:18:03 10° ESE visible
05 Apr - 21:59:34 10° W 22:05:25 29° SSW 22:11:03 10° SSE visible
06 Apr - 05:44:05 10° SSW 05:48:47 19° SSE 05:53:38 10° ESE visible
06 Apr - 07:36:14 10° SW 07:43:11 67° SSE 07:50:36 10° ENE daylight
06 Apr - 09:30:53 10° W 09:37:34 38° NNW 09:44:35 10° NE daylight
06 Apr - 11:29:25 10° NW 11:32:49 13° NNW 11:36:17 10° N daylight
06 Apr - 17:17:34 10° NNW 17:22:34 19° NNE 17:27:24 10° ENE daylight
06 Apr - 19:10:08 10° NW 19:17:22 57° NNE 19:24:09 10° ESE visible
06 Apr - 21:04:57 10° W 21:11:33 41° SSW 21:17:49 10° SE visible
06 Apr - 23:03:54 10° SW 23:06:10 12° SSW 23:08:25 10° S night (unlit)
07 Apr - 04:51:31 10° S 04:54:44 14° SSE 04:57:59 10° SE visible
07 Apr - 06:42:44 10° SW 06:49:17 47° SSE 06:56:14 10° ENE daylight
07 Apr - 08:36:39 10° WSW 08:43:32 51° NNW 08:50:51 10° NE daylight
07 Apr - 10:33:49 10° WNW 10:38:28 17° NNW 10:43:15 10° NNE daylight
07 Apr - 16:24:25 10° N 16:28:16 14° NNE 16:32:03 10° NE daylight
07 Apr - 18:16:21 10° NW 18:23:23 42° NNE 18:30:03 10° E daylight
07 Apr - 20:10:32 10° WNW 20:17:41 59° SSW 20:24:24 10° SE visible
07 Apr - 22:07:53 10° WSW 22:12:05 17° SSW 22:16:12 10° SSE visible
08 Apr - 05:49:25 10° SSW 05:55:23 34° SSE 06:01:40 10° E visible
08 Apr - 07:42:40 10° WSW 07:49:35 71° NNW 07:56:58 10° NE daylight
08 Apr - 09:38:46 10° WNW 09:44:14 22° NNW 09:49:56 10° NNE daylight
08 Apr - 15:31:51 10° N 15:33:52 11° NNE 15:35:52 10° NNE daylight
08 Apr - 17:22:41 10° NNW 17:29:20 31° NNE 17:35:40 10° E daylight
08 Apr - 19:16:18 10° WNW 19:23:47 82° SSW 19:30:48 10° ESE visible
08 Apr - 21:12:36 10° WSW 21:18:05 24° SSW 21:23:21 10° SSE visible
09 Apr - 04:56:17 10° SSW 05:01:29 24° SSE 05:06:51 10° E visible
09 Apr - 06:48:53 10° WSW 06:55:41 85° SSE 07:02:58 10° ENE daylight
09 Apr - 08:44:05 10° W 08:50:06 29° NNW 08:56:26 10° NNE daylight
09 Apr - 10:44:45 10° NNW 10:45:35 10° NNW 10:46:25 10° N daylight
09 Apr - 16:29:10 10° NNW 16:35:10 24° NNE 16:40:59 10° ENE daylight
09 Apr - 18:22:14 10° NW 18:29:51 74° NNE 18:37:01 10° ESE daylight
09 Apr - 20:17:42 10° W 20:24:07 33° SSW 20:30:14 10° SSE visible
